Tracking 19564 objects as of 19-Mar-2019
HD Live streaming from Space Station
objects crossing your sky now

RADUGA 1-1

Track RADUGA 1-1 now!
RADUGA 1-1 is classified as:


NORAD ID: 20083
Int'l Code: 1989-048A
Perigee: 36,159.3 km
Apogee: 36,316.0 km
Inclination: 15.2 °
Period: 1,458.8 minutes
Semi major axis: 42608 km
RCS: 2.8183 m2 (large)
Launch date: June 21, 1989
Source: Commonwealth of Independent States (former USSR) (CIS)
Launch site: TYURATAM MISSILE AND SPACE COMPLEX (TTMTR)
aabbcc
Your satellite tracking list
Your tracking list is empty




NASA's NSSDC Master Catalog

Two Line Element Set (TLE):
1 20083U 89048A   19076.18799539 -.00000188  00000-0  00000+0 0  9993
2 20083  15.1821 356.1875 0018386  69.5930 123.1941  0.98708955105116
Source of the keplerian elements: AFSPC